Pacific Pathfinder — PATH — position and weather

sailwx.info

Track history (hours):
 
Tides and Currents Weather Stations Pressure Air Temp Water Temp Dewpoint Dewpoint Depression Visibility Wind Speed Wind Dir Waves Ship Positions

Pacific Pathfinder

Last reported at 2014-Nov-23 04:09 UTC. Time now 2014-Nov-23 06:04 UTC.
Position N 54°17' W 130°22'.

Length 15 m; draft 1.3 m.

Type: Pilot. MMSI: 316003484.

Date/timePositionNaut miles runAvg speedWind from/ knotsBaromVisibWave heightAir tempDewpointWater temp
2014-Nov-23 04:09N 54°17' W 130°22'1 1.2
2014-Nov-23 03:33N 54°18' W 130°21'0 0.0
2014-Nov-23 01:33N 54°18' W 130°21'0 0.0
2014-Nov-22 21:34N 54°18' W 130°21'0 0.0
2014-Nov-22 20:34N 54°18' W 130°21'0 0.0
2014-Nov-22 19:33N 54°18' W 130°21'0 0.0
2014-Nov-22 18:34N 54°18' W 130°21'0 0.0
2014-Nov-22 17:33N 54°18' W 130°21'0 0.0
2014-Nov-22 04:10N 54°18' W 130°21'0 0.0
2014-Nov-22 03:33N 54°18' W 130°21'0 0.0
2014-Nov-22 02:33N 54°18' W 130°21'0 0.0
2014-Nov-22 01:33N 54°18' W 130°21'0 0.0
2014-Nov-22 00:33N 54°18' W 130°21'0 0.0
2014-Nov-21 23:33N 54°18' W 130°21'0 0.0
2014-Nov-21 22:33N 54°18' W 130°21'0 0.0
2014-Nov-21 21:33N 54°18' W 130°21'0 0.0
2014-Nov-21 20:33N 54°18' W 130°21'2 2.2
2014-Nov-21 19:34N 54°19' W 130°24'2 1.1
2014-Nov-21 17:34N 54°18' W 130°21'0 0.0
2014-Nov-21 09:33N 54°18' W 130°21'0 0.0
2014-Nov-21 08:34N 54°18' W 130°21'0 0.0
2014-Nov-21 07:34N 54°18' W 130°21'0 0.0
2014-Nov-21 06:34N 54°18' W 130°21'0 0.0
2014-Nov-21 05:34N 54°18' W 130°21'1 0.2
2014-Nov-21 02:21N 54°17' W 130°22'1 0.7
2014-Nov-21 01:33N 54°18' W 130°21'0 0.0
2014-Nov-21 00:33N 54°18' W 130°21'0 0.0
2014-Nov-20 23:33N 54°18' W 130°21'0 0.0
2014-Nov-20 22:33N 54°18' W 130°21'0 0.0
2014-Nov-20 20:04N 54°18' W 130°21'0 0.0
2014-Nov-20 19:33N 54°18' W 130°21'0 0.0
2014-Nov-20 18:33N 54°18' W 130°21'0 0.0
2014-Nov-20 17:33N 54°18' W 130°21'0 0.0
2014-Nov-20 16:33N 54°18' W 130°21'0 0.0
2014-Nov-20 15:33N 54°18' W 130°21'0 0.0
2014-Nov-20 14:33N 54°18' W 130°21'0 0.0
2014-Nov-20 13:33N 54°18' W 130°21'0 0.0
2014-Nov-20 12:33N 54°18' W 130°21'0 0.0
2014-Nov-20 11:33N 54°18' W 130°21'0 0.0
2014-Nov-20 10:33N 54°18' W 130°21'0 0.0
2014-Nov-20 09:33N 54°18' W 130°21'0 0.0
2014-Nov-20 08:33N 54°18' W 130°21'0 0.0
2014-Nov-20 07:33N 54°18' W 130°21'0 0.0
2014-Nov-20 06:33N 54°18' W 130°21'0 0.0
2014-Nov-20 05:33N 54°18' W 130°21'0 0.0
2014-Nov-20 04:33N 54°18' W 130°21'0 0.0
2014-Nov-20 03:33N 54°18' W 130°21'0 0.0
2014-Nov-20 02:33N 54°18' W 130°21'0 0.0
2014-Nov-20 01:33N 54°18' W 130°21'0 0.0
2014-Nov-20 00:33N 54°18' W 130°21'0 0.0
2014-Nov-19 23:33N 54°18' W 130°21'0 0.0
2014-Nov-19 22:33N 54°18' W 130°21'0 0.0
2014-Nov-19 21:33N 54°18' W 130°21'5 5.2
2014-Nov-19 20:33N 54°19' W 130°30'5 4.0
2014-Nov-19 19:11N 54°15' W 130°37'914.9
2014-Nov-19 18:33N 54°18' W 130°21'2 2.1
2014-Nov-19 17:34N 54°19' W 130°19'2 2.0
2014-Nov-19 16:34N 54°18' W 130°21'0 0.0
2014-Nov-19 00:33N 54°17' W 130°22'0 0.5
2014-Nov-18 23:33N 54°18' W 130°21'0 0.0
2014-Nov-18 22:33N 54°18' W 130°21'0 0.0
2014-Nov-18 21:33N 54°18' W 130°21'0 0.0
2014-Nov-18 20:33N 54°18' W 130°21'0 0.0
2014-Nov-18 19:33N 54°18' W 130°21'0 0.0
2014-Nov-18 18:33N 54°18' W 130°21'1 0.1
2014-Nov-18 08:24N 54°17' W 130°22'1 1.2
2014-Nov-18 07:34N 54°18' W 130°21'0 0.0
2014-Nov-18 06:33N 54°18' W 130°21'0 0.0
2014-Nov-18 05:34N 54°18' W 130°21'0 0.0
2014-Nov-18 04:33N 54°18' W 130°21'0 0.0
2014-Nov-18 03:34N 54°18' W 130°21'0 0.0
2014-Nov-18 02:34N 54°18' W 130°21'0 0.0
2014-Nov-18 01:34N 54°18' W 130°21'0 0.0
2014-Nov-17 21:33N 54°18' W 130°21'0 0.0
2014-Nov-17 20:34N 54°18' W 130°21'0 0.0
2014-Nov-17 19:33N 54°18' W 130°21'0 0.0
2014-Nov-17 18:33N 54°18' W 130°21'0 0.0
2014-Nov-17 17:34N 54°18' W 130°21'0 0.0
2014-Nov-17 16:34N 54°18' W 130°21'0 0.0
2014-Nov-17 15:34N 54°18' W 130°21'0 0.0
2014-Nov-17 14:34N 54°18' W 130°21'0 0.0
2014-Nov-17 13:34N 54°18' W 130°21'0 0.0
2014-Nov-17 12:34N 54°18' W 130°21'0 0.0
2014-Nov-17 11:33N 54°18' W 130°21'0 0.0
2014-Nov-17 10:33N 54°18' W 130°21'0 0.0
2014-Nov-17 09:34N 54°18' W 130°21'0 0.0
2014-Nov-17 08:34N 54°18' W 130°21'0 0.0
2014-Nov-17 07:33N 54°18' W 130°21'0 0.0
2014-Nov-17 06:33N 54°18' W 130°21'0 0.0
2014-Nov-17 05:34N 54°18' W 130°21'0 0.0
2014-Nov-17 04:34N 54°18' W 130°21'0 0.0
2014-Nov-17 03:33N 54°18' W 130°21'0 0.0
2014-Nov-17 02:33N 54°18' W 130°21'0 0.0
2014-Nov-17 01:34N 54°18' W 130°21'0 0.0
2014-Nov-17 00:34N 54°18' W 130°21'0 0.0
2014-Nov-16 23:33N 54°18' W 130°21'0 0.0
2014-Nov-16 22:34N 54°18' W 130°21'0 0.0
2014-Nov-16 21:34N 54°18' W 130°21'0 0.0
2014-Nov-16 20:34N 54°18' W 130°21'1 0.1
2014-Nov-16 13:14N 54°17' W 130°22'1 1.0
2014-Nov-16 12:33N 54°18' W 130°21'0 0.0
2014-Nov-16 11:33N 54°18' W 130°21'0 0.0
2014-Nov-16 10:33N 54°18' W 130°21'0 0.0
2014-Nov-16 09:33N 54°18' W 130°21'0 0.0
2014-Nov-16 08:33N 54°18' W 130°21'0 0.0
2014-Nov-16 07:33N 54°18' W 130°21'0 0.0
2014-Nov-16 06:33N 54°18' W 130°21'1 0.1
2014-Nov-15 22:33N 54°19' W 130°21'1 1.0
2014-Nov-15 21:30N 54°19' W 130°19'2 2.2
2014-Nov-15 20:33N 54°18' W 130°21'0 0.0
2014-Nov-15 19:34N 54°18' W 130°21'0 0.0
2014-Nov-15 18:33N 54°18' W 130°21'0 0.0
2014-Nov-15 17:33N 54°18' W 130°21'1 0.1
2014-Nov-15 05:09N 54°17' W 130°22'1 1.1
2014-Nov-15 04:33N 54°18' W 130°21'0 0.0
2014-Nov-15 03:33N 54°18' W 130°21'0 0.0
2014-Nov-15 02:33N 54°18' W 130°21'0 0.0
2014-Nov-15 01:33N 54°18' W 130°21'0 0.0
2014-Nov-15 00:33N 54°18' W 130°21'0 0.0
2014-Nov-14 23:33N 54°18' W 130°21'0 0.0
2014-Nov-14 22:33N 54°18' W 130°21'0 0.0
2014-Nov-14 21:33N 54°18' W 130°21'0 0.0
2014-Nov-14 20:33N 54°18' W 130°21'1 0.6
2014-Nov-14 19:06N 54°17' W 130°22'2 1.4
2014-Nov-14 17:33N 54°19' W 130°20'1 1.3
2014-Nov-14 16:33N 54°18' W 130°21'0 0.0
2014-Nov-14 15:33N 54°18' W 130°21'0 0.0
2014-Nov-14 09:33N 54°18' W 130°21'0 0.0
2014-Nov-14 08:33N 54°18' W 130°21'9 2.1
2014-Nov-14 04:16N 54°19' W 130°36'912.7
2014-Nov-14 03:33N 54°18' W 130°21'0 0.0
2014-Nov-14 02:33N 54°18' W 130°21'2 1.8
2014-Nov-14 01:34N 54°19' W 130°24'2 0.9
2014-Nov-13 23:06N 54°17' W 130°22'1 1.7
2014-Nov-13 22:33N 54°18' W 130°21'0 0.0
2014-Nov-13 21:33N 54°18' W 130°21'0 0.0
2014-Nov-13 20:33N 54°18' W 130°21'0 0.0
2014-Nov-13 19:33N 54°18' W 130°21'0 0.0
2014-Nov-13 18:33N 54°18' W 130°21'0 0.0
2014-Nov-13 15:33N 54°18' W 130°21'0 0.0
2014-Nov-13 14:33N 54°18' W 130°21'0 0.0
2014-Nov-13 13:33N 54°18' W 130°21'0 0.0
2014-Nov-13 12:33N 54°18' W 130°21'0 0.0
2014-Nov-13 11:33N 54°18' W 130°21'0 0.0
2014-Nov-13 10:33N 54°18' W 130°21'0 0.0
2014-Nov-13 09:33N 54°18' W 130°21'0 0.0
2014-Nov-13 08:33N 54°18' W 130°21'0 0.0
2014-Nov-13 07:33N 54°18' W 130°21'0 0.0
2014-Nov-13 06:33N 54°18' W 130°21'0 0.0
2014-Nov-13 05:33N 54°18' W 130°21'0 0.0
2014-Nov-13 04:33N 54°18' W 130°21'  
Track history (hours):
 
Tides and Currents Weather Stations Pressure Air Temp Water Temp Dewpoint Dewpoint Depression Visibility Wind Speed Wind Dir Waves Ship Positions

Pacific Pathfinder

Last reported at 2014-Nov-23 04:09 UTC. Time now 2014-Nov-23 06:04 UTC.
Position N 54°17' W 130°22'.

Length 15 m; draft 1.3 m.

Type: Pilot. MMSI: 316003484.

Date/timePositionNaut miles runAvg speedWind from/ knotsBaromVisibWave heightAir tempDewpointWater temp
2014-Nov-23 04:09N 54°17' W 130°22'1 1.2
2014-Nov-23 03:33N 54°18' W 130°21'0 0.0
2014-Nov-23 01:33N 54°18' W 130°21'0 0.0
2014-Nov-22 21:34N 54°18' W 130°21'0 0.0
2014-Nov-22 20:34N 54°18' W 130°21'0 0.0
2014-Nov-22 19:33N 54°18' W 130°21'0 0.0
2014-Nov-22 18:34N 54°18' W 130°21'0 0.0
2014-Nov-22 17:33N 54°18' W 130°21'0 0.0
2014-Nov-22 04:10N 54°18' W 130°21'0 0.0
2014-Nov-22 03:33N 54°18' W 130°21'0 0.0
2014-Nov-22 02:33N 54°18' W 130°21'0 0.0
2014-Nov-22 01:33N 54°18' W 130°21'0 0.0
2014-Nov-22 00:33N 54°18' W 130°21'0 0.0
2014-Nov-21 23:33N 54°18' W 130°21'0 0.0
2014-Nov-21 22:33N 54°18' W 130°21'0 0.0
2014-Nov-21 21:33N 54°18' W 130°21'0 0.0
2014-Nov-21 20:33N 54°18' W 130°21'2 2.2
2014-Nov-21 19:34N 54°19' W 130°24'2 1.1
2014-Nov-21 17:34N 54°18' W 130°21'0 0.0
2014-Nov-21 09:33N 54°18' W 130°21'0 0.0
2014-Nov-21 08:34N 54°18' W 130°21'0 0.0
2014-Nov-21 07:34N 54°18' W 130°21'0 0.0
2014-Nov-21 06:34N 54°18' W 130°21'0 0.0
2014-Nov-21 05:34N 54°18' W 130°21'1 0.2
2014-Nov-21 02:21N 54°17' W 130°22'1 0.7
2014-Nov-21 01:33N 54°18' W 130°21'0 0.0
2014-Nov-21 00:33N 54°18' W 130°21'0 0.0
2014-Nov-20 23:33N 54°18' W 130°21'0 0.0
2014-Nov-20 22:33N 54°18' W 130°21'0 0.0
2014-Nov-20 20:04N 54°18' W 130°21'0 0.0
2014-Nov-20 19:33N 54°18' W 130°21'0 0.0
2014-Nov-20 18:33N 54°18' W 130°21'0 0.0
2014-Nov-20 17:33N 54°18' W 130°21'0 0.0
2014-Nov-20 16:33N 54°18' W 130°21'0 0.0
2014-Nov-20 15:33N 54°18' W 130°21'0 0.0
2014-Nov-20 14:33N 54°18' W 130°21'0 0.0
2014-Nov-20 13:33N 54°18' W 130°21'0 0.0
2014-Nov-20 12:33N 54°18' W 130°21'0 0.0
2014-Nov-20 11:33N 54°18' W 130°21'0 0.0
2014-Nov-20 10:33N 54°18' W 130°21'0 0.0
2014-Nov-20 09:33N 54°18' W 130°21'0 0.0
2014-Nov-20 08:33N 54°18' W 130°21'0 0.0
2014-Nov-20 07:33N 54°18' W 130°21'0 0.0
2014-Nov-20 06:33N 54°18' W 130°21'0 0.0
2014-Nov-20 05:33N 54°18' W 130°21'0 0.0
2014-Nov-20 04:33N 54°18' W 130°21'0 0.0
2014-Nov-20 03:33N 54°18' W 130°21'0 0.0
2014-Nov-20 02:33N 54°18' W 130°21'0 0.0
2014-Nov-20 01:33N 54°18' W 130°21'0 0.0
2014-Nov-20 00:33N 54°18' W 130°21'0 0.0
2014-Nov-19 23:33N 54°18' W 130°21'0 0.0
2014-Nov-19 22:33N 54°18' W 130°21'0 0.0
2014-Nov-19 21:33N 54°18' W 130°21'5 5.2
2014-Nov-19 20:33N 54°19' W 130°30'5 4.0
2014-Nov-19 19:11N 54°15' W 130°37'914.9
2014-Nov-19 18:33N 54°18' W 130°21'2 2.1
2014-Nov-19 17:34N 54°19' W 130°19'2 2.0
2014-Nov-19 16:34N 54°18' W 130°21'0 0.0
2014-Nov-19 00:33N 54°17' W 130°22'0 0.5
2014-Nov-18 23:33N 54°18' W 130°21'0 0.0
2014-Nov-18 22:33N 54°18' W 130°21'0 0.0
2014-Nov-18 21:33N 54°18' W 130°21'0 0.0
2014-Nov-18 20:33N 54°18' W 130°21'0 0.0
2014-Nov-18 19:33N 54°18' W 130°21'0 0.0
2014-Nov-18 18:33N 54°18' W 130°21'1 0.1
2014-Nov-18 08:24N 54°17' W 130°22'1 1.2
2014-Nov-18 07:34N 54°18' W 130°21'0 0.0
2014-Nov-18 06:33N 54°18' W 130°21'0 0.0
2014-Nov-18 05:34N 54°18' W 130°21'0 0.0
2014-Nov-18 04:33N 54°18' W 130°21'0 0.0
2014-Nov-18 03:34N 54°18' W 130°21'0 0.0
2014-Nov-18 02:34N 54°18' W 130°21'0 0.0
2014-Nov-18 01:34N 54°18' W 130°21'0 0.0
2014-Nov-17 21:33N 54°18' W 130°21'0 0.0
2014-Nov-17 20:34N 54°18' W 130°21'0 0.0
2014-Nov-17 19:33N 54°18' W 130°21'0 0.0
2014-Nov-17 18:33N 54°18' W 130°21'0 0.0
2014-Nov-17 17:34N 54°18' W 130°21'0 0.0
2014-Nov-17 16:34N 54°18' W 130°21'0 0.0
2014-Nov-17 15:34N 54°18' W 130°21'0 0.0
2014-Nov-17 14:34N 54°18' W 130°21'0 0.0
2014-Nov-17 13:34N 54°18' W 130°21'0 0.0
2014-Nov-17 12:34N 54°18' W 130°21'0 0.0
2014-Nov-17 11:33N 54°18' W 130°21'0 0.0
2014-Nov-17 10:33N 54°18' W 130°21'0 0.0
2014-Nov-17 09:34N 54°18' W 130°21'0 0.0
2014-Nov-17 08:34N 54°18' W 130°21'0 0.0
2014-Nov-17 07:33N 54°18' W 130°21'0 0.0
2014-Nov-17 06:33N 54°18' W 130°21'0 0.0
2014-Nov-17 05:34N 54°18' W 130°21'0 0.0
2014-Nov-17 04:34N 54°18' W 130°21'0 0.0
2014-Nov-17 03:33N 54°18' W 130°21'0 0.0
2014-Nov-17 02:33N 54°18' W 130°21'0 0.0
2014-Nov-17 01:34N 54°18' W 130°21'0 0.0
2014-Nov-17 00:34N 54°18' W 130°21'0 0.0
2014-Nov-16 23:33N 54°18' W 130°21'0 0.0
2014-Nov-16 22:34N 54°18' W 130°21'0 0.0
2014-Nov-16 21:34N 54°18' W 130°21'0 0.0
2014-Nov-16 20:34N 54°18' W 130°21'1 0.1
2014-Nov-16 13:14N 54°17' W 130°22'1 1.0
2014-Nov-16 12:33N 54°18' W 130°21'0 0.0
2014-Nov-16 11:33N 54°18' W 130°21'0 0.0
2014-Nov-16 10:33N 54°18' W 130°21'0 0.0
2014-Nov-16 09:33N 54°18' W 130°21'0 0.0
2014-Nov-16 08:33N 54°18' W 130°21'0 0.0
2014-Nov-16 07:33N 54°18' W 130°21'0 0.0
2014-Nov-16 06:33N 54°18' W 130°21'1 0.1
2014-Nov-15 22:33N 54°19' W 130°21'1 1.0
2014-Nov-15 21:30N 54°19' W 130°19'2 2.2
2014-Nov-15 20:33N 54°18' W 130°21'0 0.0
2014-Nov-15 19:34N 54°18' W 130°21'0 0.0
2014-Nov-15 18:33N 54°18' W 130°21'0 0.0
2014-Nov-15 17:33N 54°18' W 130°21'1 0.1
2014-Nov-15 05:09N 54°17' W 130°22'1 1.1
2014-Nov-15 04:33N 54°18' W 130°21'0 0.0
2014-Nov-15 03:33N 54°18' W 130°21'0 0.0
2014-Nov-15 02:33N 54°18' W 130°21'0 0.0
2014-Nov-15 01:33N 54°18' W 130°21'0 0.0
2014-Nov-15 00:33N 54°18' W 130°21'0 0.0
2014-Nov-14 23:33N 54°18' W 130°21'0 0.0
2014-Nov-14 22:33N 54°18' W 130°21'0 0.0
2014-Nov-14 21:33N 54°18' W 130°21'0 0.0
2014-Nov-14 20:33N 54°18' W 130°21'1 0.6
2014-Nov-14 19:06N 54°17' W 130°22'2 1.4
2014-Nov-14 17:33N 54°19' W 130°20'1 1.3
2014-Nov-14 16:33N 54°18' W 130°21'0 0.0
2014-Nov-14 15:33N 54°18' W 130°21'0 0.0
2014-Nov-14 09:33N 54°18' W 130°21'0 0.0
2014-Nov-14 08:33N 54°18' W 130°21'9 2.1
2014-Nov-14 04:16N 54°19' W 130°36'912.7
2014-Nov-14 03:33N 54°18' W 130°21'0 0.0
2014-Nov-14 02:33N 54°18' W 130°21'2 1.8
2014-Nov-14 01:34N 54°19' W 130°24'2 0.9
2014-Nov-13 23:06N 54°17' W 130°22'1 1.7
2014-Nov-13 22:33N 54°18' W 130°21'0 0.0
2014-Nov-13 21:33N 54°18' W 130°21'0 0.0
2014-Nov-13 20:33N 54°18' W 130°21'0 0.0
2014-Nov-13 19:33N 54°18' W 130°21'0 0.0
2014-Nov-13 18:33N 54°18' W 130°21'0 0.0
2014-Nov-13 15:33N 54°18' W 130°21'0 0.0
2014-Nov-13 14:33N 54°18' W 130°21'0 0.0
2014-Nov-13 13:33N 54°18' W 130°21'0 0.0
2014-Nov-13 12:33N 54°18' W 130°21'0 0.0
2014-Nov-13 11:33N 54°18' W 130°21'0 0.0
2014-Nov-13 10:33N 54°18' W 130°21'0 0.0
2014-Nov-13 09:33N 54°18' W 130°21'0 0.0
2014-Nov-13 08:33N 54°18' W 130°21'0 0.0
2014-Nov-13 07:33N 54°18' W 130°21'0 0.0
2014-Nov-13 06:33N 54°18' W 130°21'0 0.0
2014-Nov-13 05:33N 54°18' W 130°21'0 0.0
2014-Nov-13 04:33N 54°18' W 130°21'  

Dump ship's entire track history